Orbital Elements
Epoch 2022 Jan. 21.0 TT = JDT 2459600.5
T 2023 Feb. 11.04131 TT Rudenko
q 3.2418275 (2000.0) P Q
z +0.0002211 Peri. 270.91706 -0.36142994 +0.81171584
+/-0.0000036 Node 323.69022 -0.16791211 -0.54066954
e 0.9992834 Incl. 50.78520 -0.91715534 -0.22089327
From 190 observations 2020 Dec. 22-2022 Feb. 21, mean residual 0".5.
|